Location: Unspecified
(0.0000°N, 0.0000°E)
Time: 03:19:45
(UTC+00:00)

ZACube-1 - Visible Passes

Search period start: 04 July 2020 00:00
Search period end: 14 July 2020 00:00
Orbit: 585 x 665 km, 97.6° (Epoch: 03 July)

Date Brightness Start Highest point End Pass type
(mag) Time Alt. Az. Time Alt. Az. Time Alt. Az.
04 Jul ? 05:11:11 10° NNE 05:15:22 70° E 05:19:31 10° S visible
05 Jul ? 05:30:04 10° N 05:34:12 59° W 05:38:17 10° SSW visible
07 Jul ? 04:32:59 10° ENE 04:35:51 18° ESE 04:38:43 10° SE visible
08 Jul ? 04:50:54 10° NE 04:54:41 34° ESE 04:58:26 10° SSE visible
09 Jul ? 05:09:23 10° NNE 05:13:31 67° ESE 05:17:37 10° S visible
10 Jul ? 05:28:14 10° N 05:32:20 61° WNW 05:36:25 10° SSW visible
12 Jul ? 04:31:13 10° ENE 04:33:59 17° ESE 04:36:44 10° SE visible
13 Jul ? 04:49:06 10° NE 04:52:48 32° E 04:56:31 10° SSE visible
